TimeEDT,TemperatureF,Dew PointF,Humidity,Sea Level PressureIn,VisibilityMPH,Wind Direction,Wind SpeedMPH,Gust SpeedMPH,PrecipitationIn,Events,Conditions,WindDirDegrees,DateUTC
12:15 AM,64.6,62.4,93,29.97,10.0,Calm,Calm,-,N/A,,Clear,0,2013-08-07 04:15:00
12:35 AM,64.4,62.4,93,29.97,7.0,Calm,Calm,-,N/A,,Clear,0,2013-08-07 04:35:00
12:55 AM,64.0,62.1,93,29.98,7.0,Calm,Calm,-,N/A,,Clear,0,2013-08-07 04:55:00
1:15 AM,64.4,62.6,94,29.97,10.0,Calm,Calm,-,N/A,,Clear,0,2013-08-07 05:15:00
1:35 AM,63.9,62.1,94,29.97,10.0,Calm,Calm,-,N/A,,Clear,0,2013-08-07 05:35:00
1:55 AM,63.5,61.7,94,29.97,10.0,Calm,Calm,-,N/A,,Clear,0,2013-08-07 05:55:00
2:15 AM,63.5,61.7,94,29.97,7.0,Calm,Calm,-,N/A,,Clear,0,2013-08-07 06:15:00
2:35 AM,63.1,61.3,94,29.97,7.0,Calm,Calm,-,N/A,,Clear,0,2013-08-07 06:35:00
2:55 AM,63.1,61.7,95,29.98,10.0,Calm,Calm,-,N/A,,Clear,0,2013-08-07 06:55:00
3:15 AM,63.1,61.5,94,29.98,7.0,Calm,Calm,-,N/A,,Clear,0,2013-08-07 07:15:00
3:35 AM,62.6,61.0,94,29.98,10.0,Calm,Calm,-,N/A,,Clear,0,2013-08-07 07:35:00
3:55 AM,62.6,60.8,94,29.98,7.0,Calm,Calm,-,N/A,,Clear,0,2013-08-07 07:55:00
4:15 AM,62.6,60.8,94,29.97,10.0,Calm,Calm,-,N/A,,Clear,0,2013-08-07 08:15:00
4:35 AM,62.6,60.8,94,29.97,10.0,Calm,Calm,-,N/A,,Clear,0,2013-08-07 08:35:00
4:55 AM,62.6,61.0,94,29.97,7.0,Calm,Calm,-,N/A,,Clear,0,2013-08-07 08:55:00
5:15 AM,62.1,60.4,94,29.97,7.0,Calm,Calm,-,N/A,,Clear,0,2013-08-07 09:15:00
5:35 AM,61.7,60.1,94,29.97,7.0,Calm,Calm,-,N/A,,Clear,0,2013-08-07 09:35:00
5:55 AM,61.7,60.3,95,29.97,10.0,Calm,Calm,-,N/A,,Clear,0,2013-08-07 09:55:00
6:15 AM,61.7,60.1,94,29.96,10.0,Calm,Calm,-,N/A,,Clear,0,2013-08-07 10:15:00
6:35 AM,61.7,60.1,94,29.97,7.0,Calm,Calm,-,N/A,,Clear,0,2013-08-07 10:35:00
6:55 AM,61.2,59.9,96,29.97,5.0,Calm,Calm,-,N/A,,Clear,0,2013-08-07 10:55:00
7:15 AM,61.7,60.1,94,29.97,10.0,Calm,Calm,-,N/A,,Clear,0,2013-08-07 11:15:00
7:35 AM,62.8,61.2,94,29.97,7.0,Calm,Calm,-,N/A,,Clear,0,2013-08-07 11:35:00
7:55 AM,64.2,62.1,93,29.97,10.0,Calm,Calm,-,N/A,,Clear,0,2013-08-07 11:55:00
8:15 AM,65.5,63.0,92,29.97,10.0,Calm,Calm,-,N/A,,Scattered Clouds,0,2013-08-07 12:15:00
8:35 AM,69.1,65.3,88,29.96,10.0,Calm,Calm,-,N/A,,Clear,0,2013-08-07 12:35:00
8:55 AM,69.3,65.5,88,29.97,10.0,Calm,Calm,-,N/A,,Clear,0,2013-08-07 12:55:00
9:15 AM,72.0,66.7,84,29.98,10.0,Calm,Calm,-,N/A,,Scattered Clouds,0,2013-08-07 13:15:00
9:35 AM,73.0,67.5,83,29.98,10.0,Calm,Calm,-,N/A,,Mostly Cloudy,0,2013-08-07 13:35:00
9:55 AM,73.9,67.8,81,29.99,10.0,Calm,Calm,-,N/A,,Overcast,0,2013-08-07 13:55:00
10:15 AM,74.5,68.4,81,29.99,10.0,Calm,Calm,-,N/A,,Overcast,0,2013-08-07 14:15:00
10:35 AM,75.4,68.9,80,29.99,10.0,SW,3.5,-,N/A,,Mostly Cloudy,220,2013-08-07 14:35:00
10:55 AM,78.3,69.3,74,29.98,10.0,SSW,5.8,-,N/A,,Scattered Clouds,200,2013-08-07 14:55:00
11:15 AM,79.2,70.0,73,29.98,10.0,SSW,5.8,-,N/A,,Scattered Clouds,200,2013-08-07 15:15:00
11:35 AM,81.1,71.2,72,29.98,10.0,South,6.9,-,N/A,,Clear,170,2013-08-07 15:35:00
11:55 AM,82.2,70.7,68,29.98,10.0,South,6.9,-,N/A,,Scattered Clouds,180,2013-08-07 15:55:00
12:15 PM,82.0,71.1,69,29.97,10.0,South,3.5,-,N/A,,Scattered Clouds,170,2013-08-07 16:15:00
12:35 PM,82.2,70.7,68,29.97,10.0,SW,5.8,-,N/A,,Scattered Clouds,220,2013-08-07 16:35:00
12:55 PM,81.9,70.9,69,29.96,10.0,SSW,5.8,-,N/A,,Scattered Clouds,200,2013-08-07 16:55:00
1:15 PM,83.3,72.0,68,29.95,10.0,SSW,5.8,-,N/A,,Scattered Clouds,200,2013-08-07 17:15:00
1:35 PM,83.8,70.5,64,29.95,10.0,SW,6.9,-,N/A,,Clear,220,2013-08-07 17:35:00
1:55 PM,83.7,70.7,65,29.95,10.0,South,4.6,-,N/A,,Scattered Clouds,170,2013-08-07 17:55:00
2:15 PM,81.3,72.7,75,29.94,10.0,SSE,3.5,-,N/A,,Mostly Cloudy,160,2013-08-07 18:15:00
2:35 PM,81.7,73.4,76,29.95,10.0,South,4.6,-,N/A,Thunderstorm,Thunderstorm,180,2013-08-07 18:35:00
2:55 PM,69.8,64.0,82,29.97,1.8,West,4.6,28.8,N/A,Rain-Thunderstorm,Heavy Thunderstorms and Rain,260,2013-08-07 18:55:00
3:15 PM,71.8,65.8,81,29.95,10.0,Calm,Calm,-,N/A,Rain-Thunderstorm,Light Thunderstorms and Rain,0,2013-08-07 19:15:00
3:35 PM,73.4,67.6,82,29.94,10.0,Calm,Calm,-,N/A,,Scattered Clouds,0,2013-08-07 19:35:00
3:55 PM,73.0,67.8,84,29.95,7.0,Calm,Calm,-,N/A,Rain-Thunderstorm,Light Thunderstorms and Rain,0,2013-08-07 19:55:00
4:15 PM,74.3,68.7,83,29.94,10.0,West,3.5,-,N/A,Rain,Light Rain,280,2013-08-07 20:15:00
4:35 PM,75.4,70.7,85,29.93,10.0,Calm,Calm,-,N/A,,Clear,0,2013-08-07 20:35:00
4:55 PM,78.3,72.1,81,29.93,10.0,Calm,Calm,-,N/A,,Clear,0,2013-08-07 20:55:00
5:15 PM,78.6,72.5,81,29.93,10.0,Calm,Calm,-,N/A,,Clear,0,2013-08-07 21:15:00
5:35 PM,80.2,73.2,79,29.93,10.0,Calm,Calm,-,N/A,,Scattered Clouds,0,2013-08-07 21:35:00
5:55 PM,80.1,73.4,80,29.94,10.0,SSW,3.5,-,N/A,,Mostly Cloudy,200,2013-08-07 21:55:00
6:15 PM,79.9,71.6,76,29.93,10.0,SSE,3.5,-,N/A,,Scattered Clouds,160,2013-08-07 22:15:00
6:35 PM,78.3,71.8,80,29.93,10.0,SE,4.6,-,N/A,,Clear,140,2013-08-07 22:35:00
6:55 PM,78.6,71.8,79,29.92,10.0,South,4.6,-,N/A,,Clear,180,2013-08-07 22:55:00
7:15 PM,78.6,71.2,78,29.93,10.0,South,3.5,-,N/A,,Scattered Clouds,190,2013-08-07 23:15:00
7:35 PM,78.1,71.6,80,29.94,10.0,Calm,Calm,-,N/A,,Scattered Clouds,0,2013-08-07 23:35:00
7:55 PM,77.4,71.2,81,29.94,10.0,Calm,Calm,-,N/A,,Scattered Clouds,0,2013-08-07 23:55:00
8:15 PM,77.0,71.1,82,29.94,10.0,Calm,Calm,-,N/A,,Scattered Clouds,0,2013-08-08 00:15:00
8:35 PM,76.1,71.6,86,29.94,10.0,Calm,Calm,-,N/A,,Clear,0,2013-08-08 00:35:00
8:55 PM,75.2,71.6,89,29.94,10.0,Calm,Calm,-,N/A,,Clear,0,2013-08-08 00:55:00
9:15 PM,74.3,71.6,91,29.94,10.0,Calm,Calm,-,N/A,,Clear,0,2013-08-08 01:15:00
9:35 PM,72.9,70.7,93,29.94,7.0,Calm,Calm,-,N/A,,Clear,0,2013-08-08 01:35:00
9:55 PM,72.9,70.9,93,29.95,7.0,Calm,Calm,-,N/A,,Scattered Clouds,0,2013-08-08 01:55:00
10:15 PM,72.5,70.7,94,29.96,10.0,Calm,Calm,-,N/A,,Scattered Clouds,0,2013-08-08 02:15:00
10:35 PM,72.3,70.3,93,29.96,10.0,Calm,Calm,-,N/A,,Scattered Clouds,0,2013-08-08 02:35:00
10:55 PM,72.7,70.7,93,29.97,10.0,Calm,Calm,-,N/A,,Scattered Clouds,0,2013-08-08 02:55:00
11:15 PM,71.2,69.1,93,29.97,7.0,Calm,Calm,-,N/A,,Clear,0,2013-08-08 03:15:00
11:35 PM,72.5,70.3,93,29.97,10.0,SSE,3.5,-,N/A,,Clear,160,2013-08-08 03:35:00
11:55 PM,72.9,70.5,92,29.96,10.0,Calm,Calm,-,N/A,,Clear,0,2013-08-08 03:55:00